Dayton Wright, OH

2:30 AM EDT on April 24, 2018 (GMT -0400)
Dayton-Wright Brothers

Weather History for KMGY - January, 2014

Change the Weather History Date:

Sunday, January 12, 2014

  Actual Average (KFFO) Record (KFFO)
Temperature  
Mean Temperature 37 °F -  
Max Temperature 42 °F 33 °F 66 °F (2005)
Min Temperature 32 °F 18 °F -5 °F (1997)
Degree Days  
Heating Degree Days 28    
Moisture  
Dew Point 29 °F    
Average Humidity 78    
Maximum Humidity 85    
Minimum Humidity 62    
Precipitation  
Precipitation 0.00 in - - ()
Sea Level Pressure  
Sea Level Pressure 29.94 in    
Wind  
Wind Speed 11 mph (SW)    
Max Wind Speed 18 mph    
Max Gust Speed 21 mph    
Visibility 10 miles    
Events      
Averages and records for this station are not official NWS values.
T = Trace of Precipitation, MM = Missing Value Source: NWS Daily Summary

Daily Weather History Graph

Daily Weather History Graph

Search for Another Location

Airport or City:

Astronomy

Jan. 12, 2014 Rise Set
Actual Time 7:56 AM EST 5:34 PM EST
Civil Twilight 7:27 AM EST 6:03 PM EST
Nautical Twilight 6:53 AM EST 6:37 PM EST
Astronomical Twilight 6:21 AM EST 7:09 PM EST
Moon 3:01 PM EST (1/12) 4:54 AM EST (1/12)
Length of Visible Light 10h 36m
Length of Day
9h 37m
Waxing Gibbous, 89% of the Moon is Illuminated
Jan 12
Waxing Gibbous
Jan 15
Full
Jan 24
Last Quarter
Jan 30
New
Feb 6
First Quarter

Hourly Weather History & Observations

Time (EST) Temp. Windchill Dew Point Humidity Pressure Visibility Wind Dir Wind Speed Gust Speed Precip Events Conditions
12:38 AM 36.0 °F 28.5 °F 30.9 °F 82% 29.79 in 10.0 mi SW 10.4 mph - N/A   Overcast
12:53 AM 36.0 °F 27.5 °F 30.9 °F 82% 29.80 in 10.0 mi SW 12.7 mph - N/A   Overcast
1:11 AM 36.0 °F 27.1 °F 30.9 °F 82% 29.78 in 9.0 mi SW 13.8 mph - N/A   Overcast
1:28 AM 36.0 °F 27.5 °F 30.9 °F 82% 29.78 in 9.0 mi WSW 12.7 mph - N/A   Overcast
1:53 AM 36.0 °F 27.1 °F 30.9 °F 82% 29.81 in 9.0 mi WSW 13.8 mph - N/A   Overcast
2:53 AM 36.0 °F 29.6 °F 30.9 °F 82% 29.83 in 8.0 mi WSW 8.1 mph - N/A   Overcast
3:53 AM 36.0 °F 29.0 °F 30.0 °F 79% 29.85 in 9.0 mi WSW 9.2 mph - N/A   Overcast
4:36 AM 34.0 °F 25.5 °F 28.9 °F 82% 29.86 in 9.0 mi WNW 11.5 mph 20.7 mph N/A   Overcast
4:53 AM 33.1 °F 25.5 °F 28.9 °F 85% 29.89 in 9.0 mi WNW 9.2 mph - N/A   Overcast
5:04 AM 33.1 °F 24.9 °F 28.0 °F 82% 29.87 in 10.0 mi WNW 10.4 mph - N/A   Overcast
5:45 AM 33.1 °F 26.9 °F 27.0 °F 78% 29.89 in 10.0 mi West 6.9 mph - N/A   Overcast
5:53 AM 32.0 °F 24.8 °F 27.0 °F 82% 29.92 in 10.0 mi West 8.1 mph - N/A   Overcast
6:53 AM 32.0 °F 26.4 °F 28.0 °F 85% 29.94 in 10.0 mi West 5.8 mph - N/A   Overcast
7:25 AM 32.0 °F 23.6 °F 27.0 °F 82% 29.94 in 10.0 mi West 10.4 mph - N/A   Overcast
7:53 AM 32.0 °F 25.6 °F 27.0 °F 82% 29.99 in 10.0 mi West 6.9 mph - N/A   Overcast
8:28 AM 32.0 °F 24.8 °F 27.0 °F 82% 29.99 in 10.0 mi WSW 8.1 mph - N/A   Overcast
8:53 AM 32.0 °F 25.6 °F 27.0 °F 82% 30.02 in 10.0 mi West 6.9 mph - N/A   Overcast
9:01 AM 32.0 °F 25.6 °F 27.0 °F 82% 30.00 in 10.0 mi WSW 6.9 mph - N/A   Overcast
9:53 AM 33.1 °F 26.1 °F 27.0 °F 78% 30.05 in 10.0 mi WSW 8.1 mph - N/A   Overcast
10:34 AM 33.1 °F 26.1 °F 28.0 °F 82% 30.03 in 9.0 mi SW 8.1 mph - N/A   Overcast
10:53 AM 34.0 °F 25.5 °F 28.0 °F 79% 30.06 in 9.0 mi SW 11.5 mph - N/A   Overcast
11:10 AM 34.0 °F 26.6 °F 28.0 °F 79% 30.04 in 9.0 mi WSW 9.2 mph - N/A   Overcast
11:53 AM 35.1 °F 26.9 °F 28.9 °F 78% 30.05 in 9.0 mi SW 11.5 mph - N/A   Overcast
12:53 PM 36.0 °F 29.0 °F 28.9 °F 76% 30.03 in 10.0 mi WSW 9.2 mph - N/A   Overcast
1:43 PM 37.0 °F 31.6 °F 30.0 °F 76% 29.98 in 10.0 mi SSW 6.9 mph - N/A   Partly Cloudy
1:53 PM 37.9 °F 29.6 °F 30.9 °F 76% 30.00 in 10.0 mi South 13.8 mph - N/A   Partly Cloudy
2:53 PM 41.0 °F 33.9 °F 32.0 °F 70% 29.98 in 10.0 mi South 12.7 mph - N/A   Clear
3:53 PM 42.1 °F 34.5 °F 32.0 °F 67% 29.97 in 10.0 mi South 15.0 mph - N/A   Clear
4:53 PM 42.1 °F 34.5 °F 32.0 °F 67% 29.99 in 10.0 mi South 15.0 mph - N/A   Clear
5:53 PM 39.0 °F 32.3 °F 30.9 °F 73% 29.98 in 10.0 mi South 10.4 mph - N/A   Clear
6:53 PM 37.9 °F 31.5 °F 30.9 °F 76% 29.98 in 10.0 mi South 9.2 mph - N/A   Clear
7:53 PM 37.9 °F 30.9 °F 32.0 °F 79% 29.97 in 10.0 mi South 10.4 mph - N/A   Clear
8:53 PM 39.0 °F 31.4 °F 30.9 °F 73% 29.95 in 10.0 mi South 12.7 mph - N/A   Clear
9:53 PM 39.9 °F 31.8 °F 30.9 °F 70% 29.93 in 10.0 mi South 15.0 mph - N/A   Clear
10:53 PM 42.1 °F 33.6 °F 30.0 °F 62% 29.91 in 10.0 mi South 18.4 mph - N/A   Clear
11:53 PM 42.1 °F 33.9 °F 30.0 °F 62% 29.88 in 10.0 mi South 17.3 mph - N/A   Clear